Location: ????????
(55.4717°N, 39.1821°E)
Time: 20:43:51
(UTC+00:00)

Meteor 1-28 Rocket - Pass Details

Date: 14 April 2024
Orbit: 475 x 491 km, 97.5° (Epoch: 22 May)

Event Time Altitude Azimuth Distance (km) Brightness Sun altitude
Exits shadow 00:47:19 20° 247° (WSW) 1,216 4.5 -12.5°
Maximum altitude 00:48:12 21° 268° (W) 1,154 4.5 -12.4°
Drops below altitude 10° 00:51:05 10° 319° (NW) 1,712 5.8 -12.0°
Sets 00:53:33 0° 336° (NNW) 2,601 6.9 -11.8°
